Regional Weather Roundup
Issued by NWS

Home | Current Version | Previous Version | Text Only | Print | Product List | Glossary Off
Versions: 1 2 3 4 5 6 7 8 9 10 11 12 13 14 15 16 17 18 19 20 21 22 23 24 25 26 27 28 29 30 31 32 33 34 35 36 37 38 39 40 41 42 43 44 45 46 47 48 49 50

000
ASUS43 KMKX 090200
RWRWI

WISCONSIN REGIONAL WEATHER ROUNDUP
NATIONAL WEATHER SERVICE MILWAUKEE/SULLIVAN WI
800 PM CST MON FEB 08 2016

NOTE: "FAIR" INDICATES FEW OR NO CLOUDS BELOW 12,000 FEET WITH NO
SIGNIFICANT WEATHER AND/OR OBSTRUCTIONS TO VISIBILITY.

WIZ001-002-006>008-014>016-023>028-090300-
NORTHWEST WISCONSIN

CITY           SKY/WX    TMP DP  RH WIND       PRES   REMARKS
SUPERIOR ARPT  CLOUDY    10   1  66 NW13      29.99S WCI  -5
ASHLAND        CLOUDY    11   6  81 NW13G20   29.91R HAZE    WCI  -4
HAYWARD        CLOUDY     9   2  73 VRB7G16   29.89S WCI  -2
SIREN          FLURRIES  11   3  70 N16G23    29.95S WCI  -5
CUMBERLAND     CLOUDY    10   5  79 NW15      29.88F WCI  -6
RICE LAKE      CLOUDY    12   5  74 NW9G18    29.91S HAZE    WCI  -1
CHETEK         LGT SNOW  12   7  79 MISG      29.89S
LADYSMITH      CLOUDY    11   5  76 NW14G22   29.87S WCI  -4
EAU CLAIRE     LGT SNOW  12   7  79 NW12G22   29.89S WCI  -2
MENOMONIE      LGT SNOW  14   8  78 NW16      29.91S WCI  -2
NEW RICHMOND   FLURRIES  13   6  75 NW14      29.93F WCI  -2
OSCEOLA        FLURRIES  14   6  72 NW12G24   29.98S WCI   0
$$

WIZ003>005-009-010-017-018-090300-
NORTH CENTRAL WISCONSIN

CITY           SKY/WX    TMP DP  RH WIND       PRES   REMARKS
MANITOWISH WTR LGT SNOW  11   8  87 NW8       29.76F WCI  -1
ARBOR VITAE    LGT SNOW  14  10  83 NW9       29.76S WCI   2
WOODRUFF       LGT SNOW  14  10  83 NW9       29.76S WCI   2
RHINELANDER    LGT SNOW  13   6  74 NW7       29.75S WCI   3
EAGLE RIVER    FLURRIES  12   6  76 NW9       29.73F WCI   0
LAND O LAKES   LGT SNOW  12   8  85 NW7       29.74F WCI   2
PHILLIPS       FLURRIES  10   5  80 NW8       29.80S WCI  -3
TOMAHAWK       LGT SNOW  12   8  81 NW9       29.78S WCI   0
MEDFORD        FLURRIES  11   7  82 NW15      29.79R WCI  -5
MERRILL        LGT SNOW  14   8  78 N10G18    29.79R WCI   1
$$

WIZ029-030-035-036-043>047-090300-
CENTRAL WISCONSIN

CITY           SKY/WX    TMP DP  RH WIND       PRES   REMARKS
WAUSAU         LGT SNOW  16  10  77 N10G22    29.76S WCI   4
MOSINEE        LGT SNOW  16  12  86 NW15G21   29.78R WCI   1
MARSHFIELD     LGT SNOW  13   7  77 NW20      29.79R WCI  -5
STEVENS POINT  LGT SNOW  14  10  83 W7        29.78S WCI   4
WAUPACA        CLOUDY    24  15  71 NW9G17    29.77R WCI  14
WAUTOMA        LGT SNOW  18  12  79 NW13G21   29.79S WCI   4
WISC RAPIDS    LGT SNOW  15   8  73 NW14      29.81S WCI   0
CAMP DOUGLAS   NOT AVBL
$$

WIZ011>013-019>022-031-037>040-048>050-090300-
NORTHEAST WISCONSIN

CITY           SKY/WX    TMP DP  RH WIND       PRES   REMARKS
ANTIGO         LGT SNOW  14  10  83 N17G23    29.73S WCI  -3
SHAWANO        LGT SNOW  24  18  77 NW12      29.76R WCI  13
OCONTO         CLOUDY    21  16  82 N12       29.76R WCI   9
STURGEON BAY   CLOUDY    19  14  79 NW16G22   29.75S WCI   5
GREEN BAY      LGT SNOW  24  20  84 N13       29.74S FOG     WCI  12
MANITOWOC      LGT SNOW  25  23  93 N12       29.73S FOG     WCI  14
APPLETON       LGT SNOW  23  16  74 NW12G17   29.72R WCI  12
CLINTONVILLE   FLURRIES  21  16  79 NW13G18   29.76R WCI   9
OSHKOSH        LGT SNOW  20  15  81 W13       29.73F WCI   7
$$

WIZ032>034-041-042-053>061-090300-
SOUTHWEST WISCONSIN

CITY           SKY/WX    TMP DP  RH WIND       PRES   REMARKS
LA CROSSE      LGT SNOW  15  10  80 NW12      29.90S WCI   2
SPARTA         LGT SNOW  15  11  85 W8        29.88R WCI   3
VIROQUA        CLOUDY    13   9  87 NW13      29.83S WCI  -2
BOSCOBEL       FLURRIES  16   9  74 NW7       29.88S WCI   6
PRAIRIE DU CHI LGT SNOW  16  10  78 NW6       29.89F WCI   7
PLATTEVILLE    CLOUDY    17  10  77 NW16      29.83S WCI   1
$$

WIZ056-057-062-063-064-067-068-090300-
SOUTH CENTRAL WISCONSIN

CITY           SKY/WX    TMP DP  RH WIND       PRES   REMARKS
REEDSBURG      LGT SNOW  15  10  83 NW8       29.82S WCI   4
BARABOO/DELLS  CLOUDY    15   8  73 NW12G17   29.81S WCI   2
LONE ROCK      NOT AVBL
MINERAL POINT  CLOUDY    18  10  73 NW14G21   29.80S WCI   4
MADISON        FLURRIES  18   9  68 NW15G23   29.78S WCI   4
MIDDLETON      CLOUDY    20  12  70 NW14      29.80R WCI   7
WATERTOWN      CLOUDY    20  19  93 NW13      29.76R WCI   8
MONROE         CLOUDY    21  14  73 NW10G21   29.77S WCI  10
JANESVILLE     CLOUDY    23  16  74 NW15G22   29.77S WCI  10
$$

WIZ051-052-058>065-066-070>072-090300-
SOUTHEAST WISCONSIN

CITY           SKY/WX    TMP DP  RH WIND       PRES   REMARKS
MILWAUKEE      LGT SNOW  23  19  85 NW15      29.72S FOG     WCI  10
WAUKESHA       NOT AVBL
MILWAUKEE/TIMM LGT SNOW  23  18  80 NW14      29.74S WCI  11
RACINE         LGT SNOW  24  18  77 NW13      29.74R WCI  12
BURLINGTON     LGT SNOW  21  17  84 NW16      29.74S WCI   7
KENOSHA        CLOUDY    24  18  77 NW16G25   29.73S WCI  11
FOND DU LAC    LGT SNOW  20  15  81 NW18      29.74S WCI   5
SHEBOYGAN      LGT SNOW  26  22  84 NW8       29.71F FOG     WCI  18
WEST BEND      LGT SNOW  23  19  86 NW13G18   29.72S WCI  11
JUNEAU         LGT SNOW  19  16  86 NW8       29.76S WCI   9
$$

LSZ147-162-090300-
LAKE SUPERIOR

STATION/POSITION TIME  TEMP    WIND        PRES    WAVE
                       AIR SEA DIR/SP/G            HT/PER
                 (UTC) (F)     (DEG/KT/KT) (MB)    (FT/S)
DEVILS ISLAND    0100   14     320/ 22/ 25 1013.9R
PORT WING        0121   14     320/ 19/ 27 1013.9F
SAXON HARBOR     0100   17                 1011.5
$$

LMZ867-665-643>646-090300-
LAKE MICHIGAN

STATION/POSITION TIME  TEMP    WIND        PRES    WAVE
                       AIR SEA DIR/SP/G            HT/PER
                 (UTC) (F)     (DEG/KT/KT) (MB)    (FT/S)
CHAMBERS ISLAND  0100   22     310/ 21/ 26 1007.1S
NORTHPORT PIER   0102   23     340/ 21/ 25 1006.8S
ALGOMA LAKESHORE 0111          350/ 14/ 19   N/A
KEWAUNEE LAKESHO 0100   25     350/  8/ 15 1006.0R
SHEBOYGAN LAKESH 0100   27     320/ 11/ 14 1007.3R
PORT WASHINGTON  0100   26     310/  6/ 12 1007.5R
MILWAUKEE LAKESH 0110   24     300/ 13/ 17   N/A
KENOSHA   LAKESH 0100   24     290/ 13/ 19 1006.8R
$$

TC  - TEMPERATURE IN CELSIUS
VSB - VISIBILITY IN STATUTE MILES
WCI - WIND CHILL INDEX
HX  - HEAT INDEX




USA.gov is the U.S. government's official web portal to all federal, state and local government web resources and services.